Wind_Speed
33 34 35 36 37 38 37 35 34 33 33 32 32 32 31 29 27 26 24 22 20 19 18 18 17 16 16 15 14 14 13 13 14 14 13 13 12 11 11 11 11 10 10 10 10 10 11 11 11
33 34 35 37 39 39 37 36 35 34 33 33 34 34 33 32 30 28 26 24 22 21 20 19 19 18 18 17 16 16 15 15 15 15 15 14 14 13 12 12 12 12 12 11 12 12 12 12 11
33 33 34 37 39 39 38 37 36 36 35 35 36 36 35 34 32 30 29 27 24 23 22 21 21 20 19 18 18 17 17 16 16 16 16 15 15 14 14 14 13 13 13 13 13 13 13 13 12
31 32 33 36 37 38 38 37 38 38 37 37 37 37 37 35 33 31 30 29 27 25 25 24 23 22 21 20 19 18 18 17 17 17 17 16 16 15 15 15 14 14 14 14 14 14 14 14 14
28 30 32 34 34 35 37 38 38 39 38 38 39 38 38 37 34 33 32 32 30 28 27 26 25 24 22 21 20 20 19 18 18 18 18 18 17 16 16 16 15 15 15 15 15 15 15 15 15
26 28 30 31 31 32 35 37 39 39 39 39 39 40 39 37 35 34 33 33 32 30 30 28 27 25 24 22 21 21 20 20 19 19 19 19 18 17 17 16 16 16 16 16 16 16 16 16 16
25 26 28 29 29 30 32 35 37 39 38 39 39 40 39 38 36 35 34 33 33 32 31 30 29 27 26 24 23 22 21 21 21 20 20 20 19 19 19 18 18 17 17 17 17 17 17 17 18
23 25 26 26 27 28 30 32 35 38 38 38 39 40 39 39 37 37 35 33 34 33 33 32 31 29 27 25 24 24 23 22 22 21 21 21 21 20 20 19 19 19 19 18 18 18 18 18 19
21 23 24 25 25 26 27 29 32 36 36 38 39 40 39 39 39 38 37 35 34 34 33 33 32 31 29 27 25 25 24 24 23 22 22 21 22 22 21 21 21 20 20 20 20 20 19 19 19
20 21 21 22 24 24 26 27 30 33 35 37 38 39 38 38 38 38 38 37 35 35 34 33 32 32 30 29 27 26 26 25 24 23 23 23 23 23 23 22 22 22 21 21 21 21 21 21 20
18 19 20 20 21 22 23 25 27 31 34 35 37 37 36 37 37 38 37 37 36 36 34 33 33 33 31 30 28 27 27 26 26 25 24 24 24 24 24 24 23 23 23 22 22 22 22 22 22
16 17 18 18 18 20 21 22 25 29 31 33 34 37 37 36 36 36 35 35 36 36 35 35 33 33 32 31 30 27 27 27 27 27 26 26 25 25 25 25 25 25 24 24 24 24 24 24 24
15 15 15 16 17 18 20 21 22 26 29 32 34 36 38 37 37 36 36 35 36 36 35 35 34 33 32 32 31 30 29 28 28 28 28 27 27 27 27 26 26 26 26 25 25 26 26 26 26
13 14 14 15 16 16 18 19 21 22 26 30 32 34 35 36 36 36 36 36 36 35 34 33 33 33 33 32 32 32 30 29 28 29 29 29 29 28 28 28 28 28 27 27 26 26 26 26 26
12 12 13 14 15 15 17 17 19 21 24 28 30 32 33 33 34 35 36 35 36 36 35 34 33 34 33 32 32 32 32 31 30 29 29 29 29 30 30 30 30 29 29 28 27 27 27 26 27
12 11 12 12 13 13 15 15 16 19 22 25 28 30 32 33 33 35 36 35 34 35 36 35 34 34 34 33 33 33 32 32 31 30 29 30 31 31 30 30 30 31 30 30 28 27 28 28 29
11 10 10 10 11 12 13 13 16 18 21 24 27 29 30 32 33 34 35 34 33 34 34 34 34 34 34 34 34 34 33 33 32 32 30 30 30 31 31 30 30 31 31 30 30 29 30 29 29
9 9 9 9 10 11 11 11 14 18 21 24 26 27 28 29 29 32 33 32 32 32 33 33 33 34 34 34 34 34 33 33 32 32 32 31 31 31 31 31 31 32 32 32 32 31 31 31 31
8 8 8 8 9 10 10 10 13 17 20 22 24 24 25 27 27 30 31 31 30 31 32 32 32 32 34 34 34 33 32 31 31 31 33 32 31 32 33 33 33 34 34 34 34 34 33 33 33
8 8 8 8 8 9 10 10 12 15 18 21 23 23 23 26 27 29 30 31 30 30 30 30 30 31 32 33 33 32 31 31 31 31 32 33 33 33 33 34 34 34 35 35 35 35 35 35 34
8 8 8 8 8 9 10 10 12 11 14 19 21 21 20 23 25 27 28 30 29 28 28 27 28 29 30 31 31 32 31 31 32 32 32 33 34 34 35 35 35 35 36 36 35 36 36 35 35
9 8 8 8 9 9 10 11 11 12 13 17 19 20 19 20 24 27 27 27 28 28 27 27 27 28 28 30 31 32 32 32 33 33 34 34 34 34 35 36 35 36 36 36 36 35 36 36 36
9 9 9 8 8 9 10 11 11 12 13 15 17 17 18 19 22 25 26 26 27 27 27 27 27 28 29 30 31 32 33 33 34 34 34 34 35 35 36 36 36 37 37 37 38 38 37 37 38
10 9 10 9 9 10 10 11 11 11 12 14 16 17 18 18 22 23 23 24 26 27 27 27 28 28 28 29 31 32 33 33 34 34 34 35 36 37 37 37 37 37 38 38 38 39 39 39 40
10 10 10 10 10 11 11 11 10 11 12 13 14 16 18 18 20 22 23 24 25 27 28 28 28 28 29 29 29 31 32 34 35 35 35 36 36 37 37 38 38 38 38 39 40 40 40 41 41
11 11 11 11 11 11 11 11 10 11 11 13 14 16 18 18 20 21 22 23 24 26 28 28 29 29 29 29 29 30 32 34 35 36 36 37 37 37 38 39 38 39 39 40 41 41 42 42 43
12 12 12 13 13 13 12 12 12 11 11 12 14 16 18 18 19 21 22 23 24 25 28 30 30 30 30 31 31 31 32 33 34 36 36 37 37 38 39 39 39 39 40 41 42 43 43 44 43
13 13 14 14 15 15 14 14 13 12 12 13 14 16 18 20 20 21 22 23 24 26 28 30 30 31 32 33 34 33 33 33 33 35 35 37 37 38 38 40 40 41 41 41 43 44 43 43 43
16 15 15 15 16 16 16 15 13 13 13 14 15 16 18 20 21 22 23 23 24 26 28 29 30 31 32 33 34 35 34 33 33 34 35 36 37 38 39 40 41 42 42 42 43 43 43 42 43
17 17 18 18 17 17 17 16 15 14 15 16 17 17 18 19 20 21 22 23 24 26 27 28 29 30 31 32 33 34 34 35 35 35 36 38 39 40 41 41 41 41 41 41 42 43 43 44 44
Wind_Direction
255 252 250 249 248 246 246 245 244 241 238 237 236 236 235 232 232 232 231 230 231 233 233 233 235 235 237 240 243 247 249 249 249 250 251 251 250 249 250 252 253 255 257 258 260 263 266 270 272
256 253 251 249 248 247 247 245 243 241 239 238 237 236 236 233 232 232 231 230 229 231 233 234 235 236 238 240 242 247 250 251 249 249 250 250 249 249 249 251 254 257 259 262 265 266 269 271 272
258 255 253 250 248 247 247 246 244 241 238 236 236 235 235 234 232 231 231 231 229 231 232 233 235 236 237 240 243 246 250 251 249 249 249 248 249 249 250 252 255 259 261 264 267 269 270 270 272
260 257 254 252 250 248 247 245 244 240 237 235 235 234 234 234 233 231 231 230 229 230 230 232 234 236 237 240 244 247 249 250 249 248 249 248 249 249 250 253 255 259 262 265 267 270 270 271 273
261 259 257 255 253 250 246 245 243 240 237 235 234 233 233 234 233 232 232 230 229 230 231 231 232 234 236 239 243 247 249 249 248 247 247 248 249 250 252 253 255 258 262 265 267 270 270 271 273
264 261 259 257 253 250 246 244 242 238 236 235 234 233 233 234 233 231 230 230 230 230 231 230 232 234 236 239 243 246 248 247 246 246 247 248 249 250 252 253 254 257 261 264 267 269 270 271 273
265 263 261 258 254 248 245 243 240 236 234 234 234 233 233 233 233 232 230 229 228 229 231 229 230 234 236 238 242 245 247 247 245 246 247 247 248 250 251 252 254 257 260 264 267 269 270 272 273
268 264 262 257 254 249 245 242 239 236 233 233 233 233 232 232 232 231 228 228 229 230 231 230 230 232 235 238 241 244 245 247 246 246 247 248 250 252 252 253 254 257 259 263 267 269 271 273 273
272 265 262 258 254 250 246 241 237 236 234 232 231 232 232 232 231 230 228 229 230 230 230 229 229 231 235 237 241 243 245 247 247 247 247 249 251 253 253 254 254 256 259 262 266 269 271 273 274
274 269 265 259 255 251 247 243 238 234 231 229 229 230 231 230 229 228 227 228 230 231 230 230 229 230 233 237 240 242 244 246 247 248 248 250 252 254 254 254 255 256 259 261 265 269 271 272 274
276 272 266 261 256 251 245 242 239 234 230 227 227 226 229 229 228 227 226 225 227 229 231 231 230 230 233 237 240 241 242 244 246 247 248 250 252 254 255 254 256 257 259 262 264 268 270 272 273
279 276 268 262 258 251 246 245 242 236 230 227 226 225 225 226 227 225 224 224 225 227 229 232 231 231 233 237 239 241 241 243 245 248 250 250 252 254 255 255 256 257 259 261 265 268 270 272 273
284 282 275 268 259 251 247 245 241 236 230 227 226 225 224 224 224 224 224 224 224 225 228 231 232 232 234 237 239 241 243 243 245 249 251 251 253 254 255 256 256 257 259 261 265 268 270 272 273
290 282 277 266 257 252 249 244 242 235 228 226 224 224 224 225 224 225 225 226 227 226 228 229 232 234 235 238 240 242 244 245 246 249 253 253 254 256 256 256 256 257 259 262 265 268 270 272 274
292 285 275 268 258 254 249 242 238 230 225 224 222 222 222 223 224 223 224 225 227 227 229 231 232 235 237 239 240 242 244 245 247 251 254 254 255 258 257 257 258 258 260 263 265 267 269 272 274
292 290 277 271 261 255 249 237 232 227 223 220 219 220 222 222 223 221 222 223 225 226 229 231 232 236 238 239 240 243 245 246 248 251 253 255 256 257 257 258 259 260 261 263 264 267 270 273 275
292 293 285 279 271 260 252 240 231 228 225 222 218 219 220 223 224 223 222 224 225 226 230 231 234 237 238 239 240 243 246 248 249 252 254 257 257 257 256 258 260 262 262 264 265 267 270 273 275
304 302 299 290 280 266 255 246 234 231 229 226 222 221 223 224 226 223 221 223 225 227 232 235 237 241 241 241 242 244 247 248 250 252 253 257 258 257 257 257 260 262 263 264 266 268 269 271 273
309 308 309 298 289 274 264 254 244 236 230 229 226 225 225 224 229 224 222 223 226 229 233 237 239 243 242 243 245 248 249 250 253 255 254 258 260 259 258 258 260 262 263 264 266 268 270 270 271
309 306 304 300 296 284 273 259 250 241 236 230 227 229 230 227 227 222 221 222 226 231 236 238 241 244 244 245 247 249 250 251 252 253 256 259 262 262 261 258 260 261 263 265 267 269 270 270 270
318 309 310 302 294 288 275 264 255 252 242 232 228 231 233 230 227 222 221 222 227 231 235 237 240 243 245 246 247 250 252 254 255 256 258 259 261 262 262 261 261 263 263 265 267 268 269 270 271
322 319 316 308 296 292 281 273 259 257 247 238 235 235 235 229 226 226 226 228 230 232 237 239 240 243 247 248 248 250 253 254 256 258 260 261 262 262 261 261 261 263 264 266 268 269 270 270 272
324 320 318 310 299 290 281 277 265 259 252 242 240 235 232 232 228 230 230 230 232 233 237 241 243 246 249 250 251 253 254 256 257 259 261 263 263 263 263 262 261 263 264 266 268 269 271 272 272
317 316 314 309 300 295 297 287 277 267 258 248 243 239 236 236 233 232 232 233 236 238 241 244 246 249 251 252 253 255 256 257 258 259 261 262 263 264 265 264 264 265 265 267 269 270 271 272 273
312 311 309 306 301 297 299 295 289 278 264 255 246 244 243 242 239 237 238 240 241 242 244 247 248 251 253 255 255 255 257 258 259 260 262 263 263 264 265 265 266 267 267 268 269 270 272 272 273
311 306 303 301 301 297 294 293 291 283 267 255 248 247 246 244 245 246 246 246 245 247 247 249 250 251 254 256 258 258 258 258 260 261 262 263 264 266 266 267 267 267 268 269 269 271 272 273 273
311 309 302 298 295 297 292 290 288 279 274 265 259 255 253 252 251 252 251 251 252 253 253 251 251 253 255 258 260 261 261 261 262 263 264 265 265 267 268 268 268 270 271 272 273 274 274 275 274
305 305 302 301 296 294 294 294 289 285 280 273 267 261 257 255 253 253 254 255 255 256 256 255 255 255 257 259 260 262 264 265 265 265 265 266 266 268 269 270 270 271 272 273 274 274 274 274 274
298 298 298 298 296 295 294 298 294 287 281 274 270 265 262 257 256 256 255 256 256 257 258 259 259 258 259 261 261 262 265 267 267 266 266 268 269 269 270 270 271 272 273 275 275 274 274 273 274
289 291 293 294 296 296 296 294 290 286 283 281 276 270 268 263 260 257 256 257 257 257 260 262 262 262 263 264 263 264 267 268 269 269 269 269 270 270 270 271 271 273 274 275 276 275 274 273 274
Height
5809 5810 5811 5812 5813 5814 5816 5820 5823 5827 5829 5832 5834 5836 5838 5841 5844 5848 5849 5850 5852 5853 5855 5856 5858 5859 5860 5861 5861 5862 5863 5863 5864 5864 5865 5865 5866 5866 5866 5867 5867 5867 5867 5867 5867 5867 5867 5867 5866
5800 5801 5803 5803 5804 5805 5810 5813 5816 5820 5822 5825 5827 5829 5831 5835 5838 5841 5843 5845 5847 5849 5851 5852 5854 5855 5857 5858 5859 5859 5860 5861 5861 5862 5862 5863 5863 5864 5864 5865 5865 5865 5865 5865 5865 5865 5865 5865 5864
5791 5792 5793 5793 5794 5799 5803 5806 5809 5811 5814 5817 5819 5821 5824 5828 5832 5834 5837 5840 5842 5845 5846 5848 5850 5851 5853 5854 5855 5856 5857 5858 5858 5859 5859 5860 5861 5861 5862 5862 5862 5863 5863 5863 5863 5863 5862 5862 5862
5783 5784 5784 5785 5787 5792 5794 5798 5800 5803 5806 5809 5811 5814 5817 5822 5826 5829 5831 5834 5837 5840 5841 5843 5845 5847 5849 5850 5852 5853 5853 5854 5855 5856 5856 5857 5858 5858 5859 5859 5860 5860 5860 5860 5860 5860 5860 5860 5860
5774 5775 5775 5776 5780 5783 5785 5788 5791 5793 5797 5801 5803 5807 5810 5815 5819 5822 5825 5828 5831 5834 5835 5838 5840 5842 5844 5846 5848 5849 5850 5851 5852 5852 5853 5854 5855 5855 5856 5856 5857 5857 5857 5857 5857 5857 5857 5857 5857
5766 5766 5767 5769 5772 5774 5776 5778 5781 5784 5788 5792 5795 5799 5804 5808 5812 5816 5818 5821 5825 5828 5830 5833 5835 5838 5840 5842 5843 5845 5846 5847 5848 5849 5850 5850 5851 5852 5853 5853 5853 5854 5854 5854 5854 5854 5854 5854 5854
5759 5759 5760 5761 5763 5765 5767 5769 5771 5775 5779 5783 5787 5791 5796 5800 5805 5808 5812 5815 5818 5821 5824 5827 5830 5832 5835 5837 5838 5840 5841 5842 5843 5845 5846 5847 5848 5848 5849 5849 5850 5850 5851 5851 5851 5851 5850 5850 5850
5751 5752 5752 5753 5755 5757 5759 5760 5762 5765 5770 5774 5778 5783 5788 5793 5797 5801 5805 5808 5811 5815 5817 5820 5823 5826 5829 5832 5833 5835 5836 5838 5839 5840 5841 5843 5844 5844 5845 5846 5846 5847 5847 5847 5847 5847 5846 5846 5846
5744 5745 5745 5746 5747 5749 5750 5752 5754 5757 5761 5765 5770 5775 5780 5784 5789 5793 5798 5802 5805 5808 5811 5814 5818 5821 5824 5826 5828 5830 5831 5833 5834 5836 5837 5838 5839 5840 5841 5841 5842 5842 5843 5843 5843 5843 5842 5842 5842
5738 5738 5739 5739 5740 5741 5742 5744 5746 5749 5752 5757 5762 5767 5771 5775 5780 5785 5790 5795 5799 5802 5805 5808 5811 5815 5818 5821 5823 5824 5826 5828 5829 5831 5832 5834 5835 5836 5836 5837 5837 5838 5838 5838 5839 5838 5838 5838 5837
5733 5733 5733 5732 5733 5734 5735 5737 5739 5741 5745 5750 5755 5760 5764 5768 5772 5777 5782 5787 5792 5795 5799 5802 5805 5809 5812 5815 5817 5819 5821 5822 5824 5826 5827 5828 5829 5830 5831 5832 5832 5833 5833 5834 5834 5833 5833 5833 5833
5728 5727 5726 5727 5727 5727 5729 5730 5732 5733 5739 5744 5748 5752 5756 5761 5766 5770 5775 5779 5784 5789 5793 5796 5799 5803 5806 5809 5811 5813 5815 5817 5819 5820 5822 5823 5824 5825 5826 5826 5827 5828 5828 5828 5829 5828 5828 5828 5828
5724 5723 5722 5721 5721 5722 5723 5724 5725 5728 5732 5736 5741 5745 5749 5754 5759 5763 5768 5772 5777 5781 5786 5790 5793 5797 5800 5802 5805 5807 5809 5811 5813 5815 5816 5817 5818 5819 5820 5821 5822 5822 5823 5823 5823 5823 5823 5822 5822
5720 5719 5718 5717 5717 5717 5718 5719 5720 5723 5726 5730 5734 5738 5743 5748 5753 5757 5762 5767 5771 5775 5779 5783 5787 5790 5793 5796 5798 5801 5803 5805 5807 5808 5810 5811 5812 5813 5814 5815 5816 5817 5817 5817 5818 5818 5817 5817 5817
5717 5716 5715 5714 5713 5713 5713 5714 5715 5719 5721 5724 5728 5732 5737 5742 5746 5751 5756 5761 5765 5770 5773 5777 5780 5784 5787 5789 5792 5794 5796 5799 5801 5802 5803 5804 5806 5807 5808 5809 5810 5811 5811 5812 5812 5812 5812 5811 5811
5714 5713 5712 5711 5710 5709 5710 5711 5712 5713 5716 5720 5723 5728 5732 5737 5741 5745 5749 5754 5759 5763 5767 5770 5774 5777 5780 5783 5785 5788 5790 5792 5794 5796 5797 5798 5799 5800 5802 5803 5804 5804 5805 5805 5805 5806 5806 5806 5805
5713 5711 5709 5709 5707 5707 5706 5708 5709 5710 5713 5716 5719 5723 5728 5732 5736 5739 5743 5748 5753 5757 5760 5764 5767 5770 5774 5776 5779 5781 5784 5786 5787 5789 5790 5791 5793 5794 5795 5796 5797 5798 5798 5799 5799 5799 5799 5799 5799
5712 5710 5708 5707 5706 5705 5705 5706 5707 5707 5710 5713 5716 5720 5724 5727 5731 5734 5737 5742 5746 5750 5753 5757 5761 5764 5767 5769 5772 5774 5776 5779 5780 5782 5783 5785 5786 5787 5788 5789 5790 5791 5792 5792 5792 5792 5792 5792 5792
5710 5708 5707 5705 5704 5703 5703 5703 5704 5704 5707 5710 5712 5716 5719 5723 5725 5729 5733 5736 5741 5745 5748 5752 5754 5757 5760 5763 5765 5767 5770 5771 5773 5775 5777 5778 5779 5780 5781 5782 5783 5783 5784 5785 5785 5785 5785 5785 5784
5708 5707 5706 5704 5703 5702 5701 5702 5701 5702 5704 5706 5708 5711 5715 5719 5721 5724 5728 5732 5736 5740 5743 5746 5749 5751 5754 5756 5758 5761 5763 5765 5766 5767 5769 5770 5772 5773 5774 5775 5775 5776 5776 5777 5777 5778 5778 5777 5777
5708 5706 5704 5703 5702 5700 5700 5700 5700 5700 5701 5703 5705 5707 5710 5713 5716 5720 5723 5727 5732 5735 5738 5740 5743 5745 5747 5750 5752 5754 5756 5758 5759 5761 5762 5763 5764 5766 5766 5767 5767 5768 5769 5769 5769 5770 5770 5769 5769
5707 5706 5703 5701 5700 5699 5698 5698 5699 5698 5698 5699 5702 5704 5706 5708 5712 5716 5719 5722 5726 5730 5732 5735 5737 5739 5741 5743 5745 5747 5749 5750 5752 5753 5754 5755 5756 5758 5758 5759 5759 5760 5761 5761 5761 5761 5761 5761 5760
5706 5704 5702 5701 5699 5698 5697 5696 5697 5695 5695 5696 5698 5700 5702 5705 5708 5712 5715 5718 5720 5724 5727 5729 5731 5733 5735 5737 5739 5740 5742 5743 5744 5746 5747 5747 5748 5749 5750 5751 5751 5752 5752 5752 5753 5753 5753 5752 5752
5705 5704 5702 5699 5698 5697 5696 5694 5694 5693 5693 5694 5695 5697 5699 5702 5705 5707 5710 5712 5715 5718 5721 5723 5725 5727 5729 5730 5732 5733 5734 5735 5736 5738 5739 5739 5740 5741 5741 5742 5742 5743 5743 5743 5743 5744 5743 5743 5742
5704 5703 5701 5698 5696 5695 5694 5692 5693 5691 5691 5691 5693 5695 5696 5698 5701 5704 5706 5708 5710 5713 5715 5718 5719 5721 5723 5724 5724 5725 5726 5727 5728 5729 5730 5731 5731 5732 5732 5733 5733 5733 5733 5734 5734 5734 5733 5733 5732
5702 5701 5699 5697 5695 5693 5692 5690 5692 5690 5689 5689 5690 5692 5693 5695 5697 5699 5701 5703 5705 5707 5709 5711 5713 5714 5716 5717 5717 5718 5719 5719 5720 5721 5721 5722 5723 5723 5724 5724 5724 5724 5724 5724 5724 5723 5723 5722 5722
5699 5698 5697 5695 5692 5691 5690 5689 5688 5687 5687 5687 5688 5689 5690 5691 5693 5695 5696 5698 5700 5701 5703 5705 5706 5707 5708 5709 5710 5710 5711 5711 5712 5712 5713 5713 5714 5714 5714 5715 5714 5714 5714 5713 5713 5712 5712 5712 5711
5697 5695 5693 5691 5689 5688 5687 5686 5686 5685 5684 5684 5685 5685 5686 5687 5689 5690 5691 5692 5693 5694 5696 5697 5699 5700 5701 5701 5702 5702 5703 5703 5703 5704 5704 5704 5704 5705 5705 5705 5704 5704 5704 5703 5703 5702 5701 5700 5700
5694 5692 5690 5688 5686 5685 5683 5686 5683 5682 5681 5681 5681 5681 5682 5683 5683 5684 5685 5686 5687 5688 5689 5690 5691 5692 5693 5694 5694 5694 5694 5694 5694 5695 5695 5695 5695 5695 5695 5694 5694 5693 5693 5692 5691 5690 5690 5689 5688
5689 5687 5686 5685 5683 5681 5679 5683 5679 5678 5677 5677 5677 5677 5677 5678 5678 5679 5680 5680 5681 5682 5683 5683 5684 5684 5685 5685 5685 5685 5685 5685 5685 5685 5685 5685 5685 5685 5684 5684 5683 5682 5681 5680 5680 5679 5678 5677 5676